Year,Month,Day,Hour,Minute,Value (Times are PST for insolation in W/m^2)
2012,12,21,00,00,0.00
2012,12,21,00,01,0.00
2012,12,21,00,02,0.00
2012,12,21,00,03,0.00
2012,12,21,00,04,0.00
2012,12,21,00,05,0.00
2012,12,21,00,06,0.00
2012,12,21,00,07,0.00
2012,12,21,00,08,0.00
2012,12,21,00,09,0.00
2012,12,21,00,10,0.00
2012,12,21,00,11,0.00
2012,12,21,00,12,0.00
2012,12,21,00,13,0.00
2012,12,21,00,14,0.00
2012,12,21,00,15,0.00
2012,12,21,00,16,0.00
2012,12,21,00,17,0.00
2012,12,21,00,18,0.00
2012,12,21,00,19,0.00
2012,12,21,00,20,0.00
2012,12,21,00,21,0.00
2012,12,21,00,22,0.00
2012,12,21,00,23,0.00
2012,12,21,00,24,0.00
2012,12,21,00,25,0.00
2012,12,21,00,26,0.00
2012,12,21,00,27,0.00
2012,12,21,00,28,0.00
2012,12,21,00,29,0.00
2012,12,21,00,30,0.00
2012,12,21,00,31,0.00
2012,12,21,00,32,0.00
2012,12,21,00,33,0.00
2012,12,21,00,34,0.00
2012,12,21,00,35,0.00
2012,12,21,00,36,0.00
2012,12,21,00,37,0.00
2012,12,21,00,38,0.00
2012,12,21,00,39,0.00
2012,12,21,00,40,0.00
2012,12,21,00,41,0.00
2012,12,21,00,42,0.00
2012,12,21,00,43,0.00
2012,12,21,00,44,0.00
2012,12,21,00,45,0.00
2012,12,21,00,46,0.00
2012,12,21,00,47,0.00
2012,12,21,00,48,0.00
2012,12,21,00,49,0.00
2012,12,21,00,50,0.00
2012,12,21,00,51,0.00
2012,12,21,00,52,0.00
2012,12,21,00,53,0.00
2012,12,21,00,54,0.00
2012,12,21,00,55,0.00
2012,12,21,00,56,0.00
2012,12,21,00,57,0.00
2012,12,21,00,58,0.00
2012,12,21,00,59,0.00
2012,12,21,01,00,0.00
2012,12,21,01,01,0.00
2012,12,21,01,02,0.00
2012,12,21,01,03,0.00
2012,12,21,01,04,0.00
2012,12,21,01,05,0.00
2012,12,21,01,06,0.00
2012,12,21,01,07,0.00
2012,12,21,01,08,0.00
2012,12,21,01,09,0.00
2012,12,21,01,10,0.00
2012,12,21,01,11,0.00
2012,12,21,01,12,0.00
2012,12,21,01,13,0.00
2012,12,21,01,14,0.00
2012,12,21,01,15,0.00
2012,12,21,01,16,0.00
2012,12,21,01,17,0.00
2012,12,21,01,18,0.00
2012,12,21,01,19,0.00
2012,12,21,01,20,0.00
2012,12,21,01,21,0.00
2012,12,21,01,22,0.00
2012,12,21,01,23,0.00
2012,12,21,01,24,0.00
2012,12,21,01,25,0.00
2012,12,21,01,26,0.00
2012,12,21,01,27,0.00
2012,12,21,01,28,0.00
2012,12,21,01,29,0.00
2012,12,21,01,30,0.00
2012,12,21,01,31,0.00
2012,12,21,01,32,0.00
2012,12,21,01,33,0.00
2012,12,21,01,34,0.00
2012,12,21,01,35,0.00
2012,12,21,01,36,0.00
2012,12,21,01,37,0.00
2012,12,21,01,38,0.00
2012,12,21,01,39,0.00
2012,12,21,01,40,0.00
2012,12,21,01,41,0.00
2012,12,21,01,42,0.00
2012,12,21,01,43,0.00
2012,12,21,01,44,0.00
2012,12,21,01,45,0.00
2012,12,21,01,46,0.00
2012,12,21,01,47,0.00
2012,12,21,01,48,0.00
2012,12,21,01,49,0.00
2012,12,21,01,50,0.00
2012,12,21,01,51,0.00
2012,12,21,01,52,0.00
2012,12,21,01,53,0.00
2012,12,21,01,54,0.00
2012,12,21,01,55,0.00
2012,12,21,01,56,0.00
2012,12,21,01,57,0.00
2012,12,21,01,58,0.00
2012,12,21,01,59,0.00
2012,12,21,02,00,0.00
2012,12,21,02,01,0.00
2012,12,21,02,02,0.00
2012,12,21,02,03,0.00
2012,12,21,02,04,0.00
2012,12,21,02,05,0.00
2012,12,21,02,06,0.00
2012,12,21,02,07,0.00
2012,12,21,02,08,0.00
2012,12,21,02,09,0.00
2012,12,21,02,10,0.00
2012,12,21,02,11,0.00
2012,12,21,02,12,0.00
2012,12,21,02,13,0.00
2012,12,21,02,14,0.00
2012,12,21,02,15,0.00
2012,12,21,02,16,0.00
2012,12,21,02,17,0.00
2012,12,21,02,18,0.00
2012,12,21,02,19,0.00
2012,12,21,02,20,0.00
2012,12,21,02,21,0.00
2012,12,21,02,22,0.00
2012,12,21,02,23,0.00
2012,12,21,02,24,0.00
2012,12,21,02,25,0.00
2012,12,21,02,26,0.00
2012,12,21,02,27,0.00
2012,12,21,02,28,0.00
2012,12,21,02,29,0.00
2012,12,21,02,30,0.00
2012,12,21,02,31,0.00
2012,12,21,02,32,0.00
2012,12,21,02,33,0.00
2012,12,21,02,34,0.00
2012,12,21,02,35,0.00
2012,12,21,02,36,0.00
2012,12,21,02,37,0.00
2012,12,21,02,38,0.00
2012,12,21,02,39,0.00
2012,12,21,02,40,0.00
2012,12,21,02,41,0.00
2012,12,21,02,42,0.00
2012,12,21,02,43,0.00
2012,12,21,02,44,0.00
2012,12,21,02,45,0.00
2012,12,21,02,46,0.00
2012,12,21,02,47,0.00
2012,12,21,02,48,0.00
2012,12,21,02,49,0.00
2012,12,21,02,50,0.00
2012,12,21,02,51,0.00
2012,12,21,02,52,0.00
2012,12,21,02,53,0.00
2012,12,21,02,54,0.00
2012,12,21,02,55,0.00
2012,12,21,02,56,0.00
2012,12,21,02,57,0.00
2012,12,21,02,58,0.00
2012,12,21,02,59,0.00
2012,12,21,03,00,0.00
2012,12,21,03,01,0.00
2012,12,21,03,02,0.00
2012,12,21,03,03,0.00
2012,12,21,03,04,0.00
2012,12,21,03,05,0.00
2012,12,21,03,06,0.00
2012,12,21,03,07,0.00
2012,12,21,03,08,0.00
2012,12,21,03,09,0.00
2012,12,21,03,10,0.00
2012,12,21,03,11,0.00
2012,12,21,03,12,0.00
2012,12,21,03,13,0.00
2012,12,21,03,14,0.00
2012,12,21,03,15,0.00
2012,12,21,03,16,0.00
2012,12,21,03,17,0.00
2012,12,21,03,18,0.00
2012,12,21,03,19,0.00
2012,12,21,03,20,0.00
2012,12,21,03,21,0.00
2012,12,21,03,22,0.00
2012,12,21,03,23,0.00
2012,12,21,03,24,0.00
2012,12,21,03,25,0.00
2012,12,21,03,26,0.00
2012,12,21,03,27,0.00
2012,12,21,03,28,0.00
2012,12,21,03,29,0.00
2012,12,21,03,30,0.00
2012,12,21,03,31,0.00
2012,12,21,03,32,0.00
2012,12,21,03,33,0.00
2012,12,21,03,34,0.00
2012,12,21,03,35,0.00
2012,12,21,03,36,0.00
2012,12,21,03,37,0.00
2012,12,21,03,38,0.00
2012,12,21,03,39,0.00
2012,12,21,03,40,0.00
2012,12,21,03,41,0.00
2012,12,21,03,42,0.00
2012,12,21,03,43,0.00
2012,12,21,03,44,0.00
2012,12,21,03,45,0.00
2012,12,21,03,46,0.00
2012,12,21,03,47,0.00
2012,12,21,03,48,0.00
2012,12,21,03,49,0.00
2012,12,21,03,50,0.00
2012,12,21,03,51,0.00
2012,12,21,03,52,0.00
2012,12,21,03,53,0.00
2012,12,21,03,54,0.00
2012,12,21,03,55,0.00
2012,12,21,03,56,0.00
2012,12,21,03,57,0.00
2012,12,21,03,58,0.00
2012,12,21,03,59,0.00
2012,12,21,04,00,0.00
2012,12,21,04,01,0.00
2012,12,21,04,02,0.00
2012,12,21,04,03,0.00
2012,12,21,04,04,0.00
2012,12,21,04,05,0.00
2012,12,21,04,06,0.00
2012,12,21,04,07,0.00
2012,12,21,04,08,0.00
2012,12,21,04,09,0.00
2012,12,21,04,10,0.00
2012,12,21,04,11,0.00
2012,12,21,04,12,0.00
2012,12,21,04,13,0.00
2012,12,21,04,14,0.00
2012,12,21,04,15,0.00
2012,12,21,04,16,0.00
2012,12,21,04,17,0.00
2012,12,21,04,18,0.00
2012,12,21,04,19,0.00
2012,12,21,04,20,0.00
2012,12,21,04,21,0.00
2012,12,21,04,22,0.00
2012,12,21,04,23,0.00
2012,12,21,04,24,0.00
2012,12,21,04,25,0.00
2012,12,21,04,26,0.00
2012,12,21,04,27,0.00
2012,12,21,04,28,0.00
2012,12,21,04,29,0.00
2012,12,21,04,30,0.00
2012,12,21,04,31,0.00
2012,12,21,04,32,0.00
2012,12,21,04,33,0.00
2012,12,21,04,34,0.00
2012,12,21,04,35,0.00
2012,12,21,04,36,0.00
2012,12,21,04,37,0.00
2012,12,21,04,38,0.00
2012,12,21,04,39,0.00
2012,12,21,04,40,0.00
2012,12,21,04,41,0.00
2012,12,21,04,42,0.00
2012,12,21,04,43,0.00
2012,12,21,04,44,0.00
2012,12,21,04,45,0.00
2012,12,21,04,46,0.00
2012,12,21,04,47,0.00
2012,12,21,04,48,0.00
2012,12,21,04,49,0.00
2012,12,21,04,50,0.00
2012,12,21,04,51,0.00
2012,12,21,04,52,0.00
2012,12,21,04,53,0.00
2012,12,21,04,54,0.00
2012,12,21,04,55,0.00
2012,12,21,04,56,0.00
2012,12,21,04,57,0.00
2012,12,21,04,58,0.00
2012,12,21,04,59,0.00
2012,12,21,05,00,0.00
2012,12,21,05,01,0.00
2012,12,21,05,02,0.00
2012,12,21,05,03,0.00
2012,12,21,05,04,0.00
2012,12,21,05,05,0.00
2012,12,21,05,06,0.00
2012,12,21,05,07,0.00
2012,12,21,05,08,0.00
2012,12,21,05,09,0.00
2012,12,21,05,10,0.00
2012,12,21,05,11,0.00
2012,12,21,05,12,0.00
2012,12,21,05,13,0.00
2012,12,21,05,14,0.00
2012,12,21,05,15,0.00
2012,12,21,05,16,0.00
2012,12,21,05,17,0.00
2012,12,21,05,18,0.00
2012,12,21,05,19,0.00
2012,12,21,05,20,0.00
2012,12,21,05,21,0.00
2012,12,21,05,22,0.00
2012,12,21,05,23,0.00
2012,12,21,05,24,0.00
2012,12,21,05,25,0.00
2012,12,21,05,26,0.00
2012,12,21,05,27,0.00
2012,12,21,05,28,0.00
2012,12,21,05,29,0.00
2012,12,21,05,30,0.00
2012,12,21,05,31,0.00
2012,12,21,05,32,0.00
2012,12,21,05,33,0.00
2012,12,21,05,34,0.00
2012,12,21,05,35,0.00
2012,12,21,05,36,0.00
2012,12,21,05,37,0.00
2012,12,21,05,38,0.00
2012,12,21,05,39,0.00
2012,12,21,05,40,0.00
2012,12,21,05,41,0.00
2012,12,21,05,42,0.00
2012,12,21,05,43,0.00
2012,12,21,05,44,0.00
2012,12,21,05,45,0.00
2012,12,21,05,46,0.00
2012,12,21,05,47,0.00
2012,12,21,05,48,0.00
2012,12,21,05,49,0.00
2012,12,21,05,50,0.00
2012,12,21,05,51,0.00
2012,12,21,05,52,0.00
2012,12,21,05,53,0.00
2012,12,21,05,54,0.00
2012,12,21,05,55,0.00
2012,12,21,05,56,0.00
2012,12,21,05,57,0.00
2012,12,21,05,58,0.00
2012,12,21,05,59,0.00
2012,12,21,06,00,0.00
2012,12,21,06,01,0.00
2012,12,21,06,02,0.00
2012,12,21,06,03,0.00
2012,12,21,06,04,0.00
2012,12,21,06,05,0.00
2012,12,21,06,06,0.00
2012,12,21,06,07,0.00
2012,12,21,06,08,0.00
2012,12,21,06,09,0.00
2012,12,21,06,10,0.00
2012,12,21,06,11,0.00
2012,12,21,06,12,0.00
2012,12,21,06,13,0.00
2012,12,21,06,14,0.00
2012,12,21,06,15,0.00
2012,12,21,06,16,0.00
2012,12,21,06,17,0.00
2012,12,21,06,18,0.00
2012,12,21,06,19,0.00
2012,12,21,06,20,0.00
2012,12,21,06,21,0.00
2012,12,21,06,22,0.00
2012,12,21,06,23,0.00
2012,12,21,06,24,0.00
2012,12,21,06,25,0.00
2012,12,21,06,26,0.00
2012,12,21,06,27,0.00
2012,12,21,06,28,0.00
2012,12,21,06,29,0.00
2012,12,21,06,30,0.00
2012,12,21,06,31,0.00
2012,12,21,06,32,0.00
2012,12,21,06,33,0.00
2012,12,21,06,34,0.00
2012,12,21,06,35,0.00
2012,12,21,06,36,0.00
2012,12,21,06,37,0.00
2012,12,21,06,38,0.00
2012,12,21,06,39,0.00
2012,12,21,06,40,0.00
2012,12,21,06,41,0.00
2012,12,21,06,42,0.00
2012,12,21,06,43,0.00
2012,12,21,06,44,0.00
2012,12,21,06,45,0.00
2012,12,21,06,46,0.00
2012,12,21,06,47,0.00
2012,12,21,06,48,0.00
2012,12,21,06,49,0.00
2012,12,21,06,50,0.00
2012,12,21,06,51,0.00
2012,12,21,06,52,0.00
2012,12,21,06,53,0.00
2012,12,21,06,54,0.00
2012,12,21,06,55,0.00
2012,12,21,06,56,0.00
2012,12,21,06,57,0.00
2012,12,21,06,58,0.00
2012,12,21,06,59,0.00
2012,12,21,07,00,0.00
2012,12,21,07,01,0.00
2012,12,21,07,02,0.00
2012,12,21,07,03,0.00
2012,12,21,07,04,0.00
2012,12,21,07,05,0.00
2012,12,21,07,06,0.00
2012,12,21,07,07,0.00
2012,12,21,07,08,0.00
2012,12,21,07,09,0.00
2012,12,21,07,10,0.00
2012,12,21,07,11,0.00
2012,12,21,07,12,0.00
2012,12,21,07,13,0.00
2012,12,21,07,14,0.00
2012,12,21,07,15,0.00
2012,12,21,07,16,0.00
2012,12,21,07,17,0.00
2012,12,21,07,18,0.00
2012,12,21,07,19,0.00
2012,12,21,07,20,0.00
2012,12,21,07,21,0.00
2012,12,21,07,22,0.00
2012,12,21,07,23,0.00
2012,12,21,07,24,0.00
2012,12,21,07,25,0.00
2012,12,21,07,26,0.00
2012,12,21,07,27,0.00
2012,12,21,07,28,0.00
2012,12,21,07,29,0.00
2012,12,21,07,30,0.00
2012,12,21,07,31,0.00
2012,12,21,07,32,0.00
2012,12,21,07,33,0.00
2012,12,21,07,34,0.00
2012,12,21,07,35,0.00
2012,12,21,07,36,0.00
2012,12,21,07,37,0.00
2012,12,21,07,38,0.00
2012,12,21,07,39,0.00
2012,12,21,07,40,0.00
2012,12,21,07,41,0.00
2012,12,21,07,42,0.00
2012,12,21,07,43,0.00
2012,12,21,07,44,0.00
2012,12,21,07,45,0.00
2012,12,21,07,46,0.00
2012,12,21,07,47,0.00
2012,12,21,07,48,0.00
2012,12,21,07,49,0.00
2012,12,21,07,50,0.00
2012,12,21,07,51,0.00
2012,12,21,07,52,0.00
2012,12,21,07,53,0.00
2012,12,21,07,54,0.00
2012,12,21,07,55,0.00
2012,12,21,07,56,0.00
2012,12,21,07,57,0.00
2012,12,21,07,58,0.00
2012,12,21,07,59,0.00
2012,12,21,08,00,0.00
2012,12,21,08,01,0.00
2012,12,21,08,02,0.00
2012,12,21,08,03,0.00
2012,12,21,08,04,0.00
2012,12,21,08,05,0.00
2012,12,21,08,06,0.00
2012,12,21,08,07,0.00
2012,12,21,08,08,0.00
2012,12,21,08,09,0.00
2012,12,21,08,10,0.00
2012,12,21,08,11,0.00
2012,12,21,08,12,0.00
2012,12,21,08,13,0.00
2012,12,21,08,14,0.00
2012,12,21,08,15,0.00
2012,12,21,08,16,0.00
2012,12,21,08,17,0.00
2012,12,21,08,18,0.70
2012,12,21,08,19,5.00
2012,12,21,08,20,5.00
2012,12,21,08,21,5.90
2012,12,21,08,22,7.00
2012,12,21,08,23,8.30
2012,12,21,08,24,9.00
2012,12,21,08,25,9.00
2012,12,21,08,26,11.00
2012,12,21,08,27,11.00
2012,12,21,08,28,11.20
2012,12,21,08,29,12.00
2012,12,21,08,30,12.00
2012,12,21,08,31,13.20
2012,12,21,08,32,14.00
2012,12,21,08,33,15.70
2012,12,21,08,34,16.00
2012,12,21,08,35,18.10
2012,12,21,08,36,19.00
2012,12,21,08,37,19.70
2012,12,21,08,38,21.00
2012,12,21,08,39,21.00
2012,12,21,08,40,21.00
2012,12,21,08,41,21.00
2012,12,21,08,42,21.00
2012,12,21,08,43,21.00
2012,12,21,08,44,21.00
2012,12,21,08,45,21.00
2012,12,21,08,46,21.00
2012,12,21,08,47,21.00
2012,12,21,08,48,21.00
2012,12,21,08,49,21.00
2012,12,21,08,50,21.00
2012,12,21,08,51,21.00
2012,12,21,08,52,19.00
2012,12,21,08,53,19.00
2012,12,21,08,54,19.00
2012,12,21,08,55,19.00
2012,12,21,08,56,19.00
2012,12,21,08,57,19.00
2012,12,21,08,58,18.30
2012,12,21,08,59,18.00
2012,12,21,09,00,18.00
2012,12,21,09,01,18.00
2012,12,21,09,02,18.00
2012,12,21,09,03,18.00
2012,12,21,09,04,17.10
2012,12,21,09,05,16.00
2012,12,21,09,06,16.00
2012,12,21,09,07,16.00
2012,12,21,09,08,16.00
2012,12,21,09,09,16.00
2012,12,21,09,10,16.00
2012,12,21,09,11,16.60
2012,12,21,09,12,18.00
2012,12,21,09,13,18.50
2012,12,21,09,14,21.50
2012,12,21,09,15,24.40
2012,12,21,09,16,27.50
2012,12,21,09,17,32.00
2012,12,21,09,18,35.40
2012,12,21,09,19,39.20
2012,12,21,09,20,41.20
2012,12,21,09,21,45.20
2012,12,21,09,22,48.00
2012,12,21,09,23,50.30
2012,12,21,09,24,53.20
2012,12,21,09,25,55.70
2012,12,21,09,26,59.80
2012,12,21,09,27,59.70
2012,12,21,09,28,57.50
2012,12,21,09,29,55.20
2012,12,21,09,30,53.50
2012,12,21,09,31,51.90
2012,12,21,09,32,51.00
2012,12,21,09,33,51.00
2012,12,21,09,34,51.00
2012,12,21,09,35,49.00
2012,12,21,09,36,49.40
2012,12,21,09,37,51.00
2012,12,21,09,38,50.20
2012,12,21,09,39,49.00
2012,12,21,09,40,47.70
2012,12,21,09,41,46.30
2012,12,21,09,42,42.80
2012,12,21,09,43,40.20
2012,12,21,09,44,40.00
2012,12,21,09,45,40.00
2012,12,21,09,46,39.70
2012,12,21,09,47,38.10
2012,12,21,09,48,34.80
2012,12,21,09,49,31.00
2012,12,21,09,50,27.00
2012,12,21,09,51,23.50
2012,12,21,09,52,21.00
2012,12,21,09,53,19.00
2012,12,21,09,54,18.70
2012,12,21,09,55,18.00
2012,12,21,09,56,18.00
2012,12,21,09,57,18.00
2012,12,21,09,58,18.00
2012,12,21,09,59,18.00
2012,12,21,10,00,16.20
2012,12,21,10,01,16.00
2012,12,21,10,02,16.00
2012,12,21,10,03,16.00
2012,12,21,10,04,16.00
2012,12,21,10,05,16.00
2012,12,21,10,06,17.30
2012,12,21,10,07,18.00
2012,12,21,10,08,18.00
2012,12,21,10,09,18.00
2012,12,21,10,10,18.00
2012,12,21,10,11,18.00
2012,12,21,10,12,18.00
2012,12,21,10,13,18.00
2012,12,21,10,14,18.00
2012,12,21,10,15,20.10
2012,12,21,10,16,22.60
2012,12,21,10,17,27.20
2012,12,21,10,18,35.00
2012,12,21,10,19,43.00
2012,12,21,10,20,48.30
2012,12,21,10,21,53.00
2012,12,21,10,22,59.50
2012,12,21,10,23,67.20
2012,12,21,10,24,75.20
2012,12,21,10,25,87.40
2012,12,21,10,26,165.90
2012,12,21,10,27,202.90
2012,12,21,10,28,150.80
2012,12,21,10,29,175.50
2012,12,21,10,30,210.80
2012,12,21,10,31,245.60
2012,12,21,10,32,247.90
2012,12,21,10,33,225.10
2012,12,21,10,34,208.60
2012,12,21,10,35,199.60
2012,12,21,10,36,193.00
2012,12,21,10,37,192.10
2012,12,21,10,38,220.00
2012,12,21,10,39,274.50
2012,12,21,10,40,267.00
2012,12,21,10,41,238.10
2012,12,21,10,42,285.60
2012,12,21,10,43,349.40
2012,12,21,10,44,297.60
2012,12,21,10,45,317.80
2012,12,21,10,46,281.00
2012,12,21,10,47,318.20
2012,12,21,10,48,369.80
2012,12,21,10,49,378.40
2012,12,21,10,50,343.80
2012,12,21,10,51,348.70
2012,12,21,10,52,390.00
2012,12,21,10,53,355.00
2012,12,21,10,54,355.00
2012,12,21,10,55,364.80
2012,12,21,10,56,383.00
2012,12,21,10,57,383.00
2012,12,21,10,58,385.60
2012,12,21,10,59,387.80
2012,12,21,11,00,388.00
2012,12,21,11,01,388.80
2012,12,21,11,02,395.60
2012,12,21,11,03,395.50
2012,12,21,11,04,397.70
2012,12,21,11,05,393.00
2012,12,21,11,06,390.00
2012,12,21,11,07,390.00
2012,12,21,11,08,356.40
2012,12,21,11,09,348.00
2012,12,21,11,10,194.30
2012,12,21,11,11,131.50
2012,12,21,11,12,166.40
2012,12,21,11,13,152.90
2012,12,21,11,14,149.00
2012,12,21,11,15,149.00
2012,12,21,11,16,137.80
2012,12,21,11,17,169.70
2012,12,21,11,18,152.50
2012,12,21,11,19,171.40
2012,12,21,11,20,196.90
2012,12,21,11,21,239.60
2012,12,21,11,22,164.50
2012,12,21,11,23,103.80
2012,12,21,11,24,88.90
2012,12,21,11,25,88.00
2012,12,21,11,26,130.10
2012,12,21,11,27,135.60
2012,12,21,11,28,109.80
2012,12,21,11,29,134.90
2012,12,21,11,30,163.60
2012,12,21,11,31,165.00
2012,12,21,11,32,135.20
2012,12,21,11,33,160.60
2012,12,21,11,34,114.00
2012,12,21,11,35,67.90
2012,12,21,11,36,56.40
2012,12,21,11,37,82.80
2012,12,21,11,38,120.70
2012,12,21,11,39,105.60
2012,12,21,11,40,86.90
2012,12,21,11,41,104.90
2012,12,21,11,42,115.20
2012,12,21,11,43,111.80
2012,12,21,11,44,117.90
2012,12,21,11,45,162.00
2012,12,21,11,46,197.70
2012,12,21,11,47,233.80
2012,12,21,11,48,180.00
2012,12,21,11,49,173.00
2012,12,21,11,50,169.00
2012,12,21,11,51,382.40
2012,12,21,11,52,410.50
2012,12,21,11,53,374.00
2012,12,21,11,54,320.00
2012,12,21,11,55,156.90
2012,12,21,11,56,154.10
2012,12,21,11,57,165.60
2012,12,21,11,58,174.70
2012,12,21,11,59,143.10
2012,12,21,12,00,109.10
2012,12,21,12,01,92.30
2012,12,21,12,02,107.90
2012,12,21,12,03,142.00
2012,12,21,12,04,170.30
2012,12,21,12,05,159.30
2012,12,21,12,06,157.00
2012,12,21,12,07,156.40
2012,12,21,12,08,190.80
2012,12,21,12,09,286.70
2012,12,21,12,10,297.00
2012,12,21,12,11,353.40
2012,12,21,12,12,520.70
2012,12,21,12,13,496.00
2012,12,21,12,14,374.50
2012,12,21,12,15,236.10
2012,12,21,12,16,234.50
2012,12,21,12,17,250.60
2012,12,21,12,18,253.00
2012,12,21,12,19,254.40
2012,12,21,12,20,266.50
2012,12,21,12,21,279.00
2012,12,21,12,22,279.00
2012,12,21,12,23,279.00
2012,12,21,12,24,279.00
2012,12,21,12,25,279.00
2012,12,21,12,26,414.10
2012,12,21,12,27,419.80
2012,12,21,12,28,418.00
2012,12,21,12,29,365.00
2012,12,21,12,30,228.10
2012,12,21,12,31,269.00
2012,12,21,12,32,233.10
2012,12,21,12,33,211.00
2012,12,21,12,34,112.60
2012,12,21,12,35,84.40
2012,12,21,12,36,90.30
2012,12,21,12,37,94.00
2012,12,21,12,38,101.90
2012,12,21,12,39,124.90
2012,12,21,12,40,133.80
2012,12,21,12,41,130.20
2012,12,21,12,42,151.20
2012,12,21,12,43,192.90
2012,12,21,12,44,221.70
2012,12,21,12,45,230.40
2012,12,21,12,46,272.00
2012,12,21,12,47,306.00
2012,12,21,12,48,347.10
2012,12,21,12,49,380.40
2012,12,21,12,50,405.70
2012,12,21,12,51,404.00
2012,12,21,12,52,243.00
2012,12,21,12,53,135.00
2012,12,21,12,54,135.00
2012,12,21,12,55,147.00
2012,12,21,12,56,171.00
2012,12,21,12,57,171.00
2012,12,21,12,58,129.30
2012,12,21,12,59,114.80
2012,12,21,13,00,74.70
2012,12,21,13,01,58.20
2012,12,21,13,02,52.70
2012,12,21,13,03,51.00
2012,12,21,13,04,51.70
2012,12,21,13,05,54.30
2012,12,21,13,06,61.40
2012,12,21,13,07,62.90
2012,12,21,13,08,62.80
2012,12,21,13,09,68.10
2012,12,21,13,10,83.70
2012,12,21,13,11,149.20
2012,12,21,13,12,158.40
2012,12,21,13,13,224.80
2012,12,21,13,14,247.00
2012,12,21,13,15,254.20
2012,12,21,13,16,263.80
2012,12,21,13,17,279.80
2012,12,21,13,18,290.10
2012,12,21,13,19,298.80
2012,12,21,13,20,297.00
2012,12,21,13,21,276.70
2012,12,21,13,22,232.70
2012,12,21,13,23,195.90
2012,12,21,13,24,216.70
2012,12,21,13,25,212.90
2012,12,21,13,26,204.30
2012,12,21,13,27,155.60
2012,12,21,13,28,152.00
2012,12,21,13,29,146.90
2012,12,21,13,30,143.20
2012,12,21,13,31,142.90
2012,12,21,13,32,145.10
2012,12,21,13,33,170.50
2012,12,21,13,34,252.10
2012,12,21,13,35,271.00
2012,12,21,13,36,356.40
2012,12,21,13,37,363.60
2012,12,21,13,38,361.10
2012,12,21,13,39,356.30
2012,12,21,13,40,352.50
2012,12,21,13,41,352.00
2012,12,21,13,42,352.00
2012,12,21,13,43,352.00
2012,12,21,13,44,352.00
2012,12,21,13,45,352.90
2012,12,21,13,46,351.50
2012,12,21,13,47,348.60
2012,12,21,13,48,345.50
2012,12,21,13,49,342.70
2012,12,21,13,50,339.00
2012,12,21,13,51,334.80
2012,12,21,13,52,329.50
2012,12,21,13,53,319.50
2012,12,21,13,54,309.60
2012,12,21,13,55,299.00
2012,12,21,13,56,287.60
2012,12,21,13,57,276.00
2012,12,21,13,58,265.30
2012,12,21,13,59,255.70
2012,12,21,14,00,247.40
2012,12,21,14,01,243.10
2012,12,21,14,02,238.70
2012,12,21,14,03,237.00
2012,12,21,14,04,236.70
2012,12,21,14,05,235.10
2012,12,21,14,06,234.00
2012,12,21,14,07,234.00
2012,12,21,14,08,234.00
2012,12,21,14,09,230.40
2012,12,21,14,10,205.20
2012,12,21,14,11,185.40
2012,12,21,14,12,133.10
2012,12,21,14,13,203.40
2012,12,21,14,14,206.10
2012,12,21,14,15,146.40
2012,12,21,14,16,73.40
2012,12,21,14,17,57.60
2012,12,21,14,18,137.60
2012,12,21,14,19,198.70
2012,12,21,14,20,196.00
2012,12,21,14,21,192.70
2012,12,21,14,22,191.10
2012,12,21,14,23,188.90
2012,12,21,14,24,186.20
2012,12,21,14,25,185.00
2012,12,21,14,26,181.60
2012,12,21,14,27,178.10
2012,12,21,14,28,175.70
2012,12,21,14,29,174.00
2012,12,21,14,30,173.30
2012,12,21,14,31,172.00
2012,12,21,14,32,172.00
2012,12,21,14,33,172.00
2012,12,21,14,34,172.00
2012,12,21,14,35,169.30
2012,12,21,14,36,148.80
2012,12,21,14,37,149.80
2012,12,21,14,38,134.90
2012,12,21,14,39,158.00
2012,12,21,14,40,156.90
2012,12,21,14,41,155.40
2012,12,21,14,42,153.60
2012,12,21,14,43,151.40
2012,12,21,14,44,149.10
2012,12,21,14,45,147.70
2012,12,21,14,46,145.50
2012,12,21,14,47,143.40
2012,12,21,14,48,141.60
2012,12,21,14,49,139.80
2012,12,21,14,50,130.80
2012,12,21,14,51,105.20
2012,12,21,14,52,86.10
2012,12,21,14,53,131.90
2012,12,21,14,54,129.40
2012,12,21,14,55,125.50
2012,12,21,14,56,120.60
2012,12,21,14,57,119.00
2012,12,21,14,58,115.60
2012,12,21,14,59,111.90
2012,12,21,15,00,109.40
2012,12,21,15,01,107.20
2012,12,21,15,02,99.80
2012,12,21,15,03,98.00
2012,12,21,15,04,98.00
2012,12,21,15,05,98.00
2012,12,21,15,06,99.10
2012,12,21,15,07,98.80
2012,12,21,15,08,97.30
2012,12,21,15,09,95.40
2012,12,21,15,10,91.20
2012,12,21,15,11,89.70
2012,12,21,15,12,87.40
2012,12,21,15,13,85.30
2012,12,21,15,14,82.70
2012,12,21,15,15,79.80
2012,12,21,15,16,77.70
2012,12,21,15,17,76.20
2012,12,21,15,18,72.40
2012,12,21,15,19,64.50
2012,12,21,15,20,55.00
2012,12,21,15,21,34.10
2012,12,21,15,22,34.10
2012,12,21,15,23,33.30
2012,12,21,15,24,49.20
2012,12,21,15,25,60.60
2012,12,21,15,26,58.40
2012,12,21,15,27,56.10
2012,12,21,15,28,53.90
2012,12,21,15,29,52.50
2012,12,21,15,30,50.30
2012,12,21,15,31,48.10
2012,12,21,15,32,46.40
2012,12,21,15,33,44.70
2012,12,21,15,34,44.00
2012,12,21,15,35,42.30
2012,12,21,15,36,40.00
2012,12,21,15,37,38.60
2012,12,21,15,38,36.40
2012,12,21,15,39,35.00
2012,12,21,15,40,34.00
2012,12,21,15,41,32.40
2012,12,21,15,42,30.60
2012,12,21,15,43,28.30
2012,12,21,15,44,28.00
2012,12,21,15,45,25.90
2012,12,21,15,46,25.00
2012,12,21,15,47,24.40
2012,12,21,15,48,22.20
2012,12,21,15,49,21.00
2012,12,21,15,50,19.00
2012,12,21,15,51,16.50
2012,12,21,15,52,16.00
2012,12,21,15,53,14.10
2012,12,21,15,54,14.00
2012,12,21,15,55,14.00
2012,12,21,15,56,13.30
2012,12,21,15,57,12.00
2012,12,21,15,58,12.00
2012,12,21,15,59,12.00
2012,12,21,16,00,12.00
2012,12,21,16,01,11.10
2012,12,21,16,02,11.00
2012,12,21,16,03,11.00
2012,12,21,16,04,11.00
2012,12,21,16,05,10.20
2012,12,21,16,06,9.00
2012,12,21,16,07,9.00
2012,12,21,16,08,9.00
2012,12,21,16,09,9.00
2012,12,21,16,10,7.20
2012,12,21,16,11,7.00
2012,12,21,16,12,7.00
2012,12,21,16,13,7.00
2012,12,21,16,14,6.10
2012,12,21,16,15,5.00
2012,12,21,16,16,5.00
2012,12,21,16,17,5.00
2012,12,21,16,18,5.00
2012,12,21,16,19,5.00
2012,12,21,16,20,4.00
2012,12,21,16,21,0.00
2012,12,21,16,22,0.00
2012,12,21,16,23,0.00
2012,12,21,16,24,0.00
2012,12,21,16,25,0.00
2012,12,21,16,26,0.00
2012,12,21,16,27,0.00
2012,12,21,16,28,0.00
2012,12,21,16,29,0.00
2012,12,21,16,30,0.00
2012,12,21,16,31,0.00
2012,12,21,16,32,0.00
2012,12,21,16,33,0.00
2012,12,21,16,34,0.00
2012,12,21,16,35,0.00
2012,12,21,16,36,0.00
2012,12,21,16,37,0.00
2012,12,21,16,38,0.00
2012,12,21,16,39,0.00
2012,12,21,16,40,0.00
2012,12,21,16,41,0.00
2012,12,21,16,42,0.00
2012,12,21,16,43,0.00
2012,12,21,16,44,0.00
2012,12,21,16,45,0.00
2012,12,21,16,46,0.00
2012,12,21,16,47,0.00
2012,12,21,16,48,0.00
2012,12,21,16,49,0.00
2012,12,21,16,50,0.00
2012,12,21,16,51,0.00
2012,12,21,16,52,0.00
2012,12,21,16,53,0.00
2012,12,21,16,54,0.00
2012,12,21,16,55,0.00
2012,12,21,16,56,0.00
2012,12,21,16,57,0.00
2012,12,21,16,58,0.00
2012,12,21,16,59,0.00
2012,12,21,17,00,0.00
2012,12,21,17,01,0.00
2012,12,21,17,02,0.00
2012,12,21,17,03,0.00
2012,12,21,17,04,0.00
2012,12,21,17,05,0.00
2012,12,21,17,06,0.00
2012,12,21,17,07,0.00
2012,12,21,17,08,0.00
2012,12,21,17,09,0.00
2012,12,21,17,10,0.00
2012,12,21,17,11,0.00
2012,12,21,17,12,0.00
2012,12,21,17,13,0.00
2012,12,21,17,14,0.00
2012,12,21,17,15,0.00
2012,12,21,17,16,0.00
2012,12,21,17,17,0.00
2012,12,21,17,18,0.00
2012,12,21,17,19,0.00
2012,12,21,17,20,0.00
2012,12,21,17,21,0.00
2012,12,21,17,22,0.00
2012,12,21,17,23,0.00
2012,12,21,17,24,0.00
2012,12,21,17,25,0.00
2012,12,21,17,26,0.00
2012,12,21,17,27,0.00
2012,12,21,17,28,0.00
2012,12,21,17,29,0.00
2012,12,21,17,30,0.00
2012,12,21,17,31,0.00
2012,12,21,17,32,0.00
2012,12,21,17,33,0.00
2012,12,21,17,34,0.00